TimeEDT,TemperatureF,Dew PointF,Humidity,Sea Level PressureIn,VisibilityMPH,Wind Direction,Wind SpeedMPH,Gust SpeedMPH,PrecipitationIn,Events,Conditions,WindDirDegrees,DateUTC
12:52 AM,55.9,52.0,87,29.95,10.0,NW,3.5,-,N/A,,Scattered Clouds,310,2013-10-01 04:52:00
1:52 AM,57.0,52.0,83,29.94,10.0,NW,3.5,-,N/A,,Mostly Cloudy,320,2013-10-01 05:52:00
2:52 AM,57.0,51.1,81,29.92,10.0,Variable,3.5,-,N/A,,Mostly Cloudy,0,2013-10-01 06:52:00
3:52 AM,57.0,52.0,83,29.91,10.0,Variable,3.5,-,N/A,,Clear,0,2013-10-01 07:52:00
4:52 AM,57.0,52.0,83,29.92,10.0,Calm,Calm,-,N/A,,Clear,0,2013-10-01 08:52:00
5:52 AM,55.9,52.0,87,29.93,10.0,NW,3.5,-,N/A,,Mostly Cloudy,310,2013-10-01 09:52:00
6:52 AM,57.9,53.1,84,29.93,10.0,NW,4.6,-,N/A,,Overcast,320,2013-10-01 10:52:00
7:52 AM,57.9,53.1,84,29.94,10.0,WNW,5.8,-,N/A,,Scattered Clouds,300,2013-10-01 11:52:00
8:52 AM,60.1,54.0,80,29.93,10.0,NW,5.8,-,N/A,,Overcast,320,2013-10-01 12:52:00
9:52 AM,63.0,55.0,75,29.93,10.0,Variable,3.5,-,N/A,,Clear,0,2013-10-01 13:52:00
10:52 AM,64.9,53.1,65,29.92,10.0,Variable,5.8,-,N/A,,Clear,0,2013-10-01 14:52:00
11:52 AM,66.9,48.9,52,29.92,10.0,North,9.2,-,N/A,,Clear,350,2013-10-01 15:52:00
12:52 PM,68.0,46.9,47,29.90,10.0,North,6.9,-,N/A,,Clear,350,2013-10-01 16:52:00
1:52 PM,68.0,48.0,49,29.88,10.0,NW,8.1,-,N/A,,Clear,320,2013-10-01 17:52:00
2:52 PM,69.1,50.0,51,29.88,10.0,Variable,4.6,-,N/A,,Clear,0,2013-10-01 18:52:00
3:52 PM,69.1,48.0,47,29.87,10.0,Variable,5.8,-,N/A,,Clear,0,2013-10-01 19:52:00
4:52 PM,68.0,48.0,49,29.88,10.0,Variable,4.6,-,N/A,,Clear,0,2013-10-01 20:52:00
5:52 PM,66.9,48.9,52,29.89,10.0,Calm,Calm,-,N/A,,Clear,0,2013-10-01 21:52:00
6:52 PM,59.0,48.9,69,29.90,10.0,Calm,Calm,-,N/A,,Clear,0,2013-10-01 22:52:00
7:52 PM,60.1,52.0,75,29.91,10.0,Calm,Calm,-,N/A,,Clear,0,2013-10-01 23:52:00
8:52 PM,59.0,55.0,87,29.91,10.0,SW,3.5,-,N/A,,Clear,220,2013-10-02 00:52:00
9:52 PM,59.0,55.0,87,29.91,10.0,Calm,Calm,-,N/A,,Clear,0,2013-10-02 01:52:00
10:52 PM,60.1,55.9,86,29.90,10.0,SW,3.5,-,N/A,,Clear,230,2013-10-02 02:52:00
11:52 PM,61.0,57.9,90,29.90,10.0,SW,4.6,-,N/A,,Clear,230,2013-10-02 03:52:00